This is the latest recevied weather packets stored in our database for station/object KC8SWY-15. If no packets are shown the sender has not sent any weather packets the latest 10 day(s).
| Time | Temp. | Humidity | Pressure | Rain* | Wind** | Luminosity | Snow |
|---|---|---|---|---|---|---|---|
| 1777051520 | 23.89° C | 58% | 1004.2 hPa | 0 mm | - | - | - |
| 1777051220 | 23.89° C | 58% | 1004.2 hPa | 0 mm | - | - | - |
| 1777050920 | 23.89° C | 58% | 1004.2 hPa | 0 mm | - | - | - |
| 1777050620 | 23.89° C | 58% | 1004.2 hPa | 0 mm | - | - | - |
| 1777050320 | 24.44° C | 57% | 1004.4 hPa | 0 mm | - | - | - |
| 1777050020 | 24.44° C | 57% | 1004.4 hPa | 0 mm | - | - | - |
| 1777049720 | 25° C | 57% | 1004.3 hPa | 0 mm | - | - | - |
| 1777049420 | 24.44° C | 58% | 1004.2 hPa | 0 mm | - | - | - |
| 1777049120 | 24.44° C | 58% | 1004.2 hPa | 0 mm | - | - | - |
| 1777048820 | 24.44° C | 56% | 1004.1 hPa | 0 mm | - | - | - |
| 1777048520 | 24.44° C | 58% | 1004.2 hPa | 0 mm | - | - | - |
| 1777048220 | 24.44° C | 58% | 1004.1 hPa | 0 mm | - | - | - |
| 1777047920 | 24.44° C | 58% | 1004.3 hPa | 0 mm | - | - | - |
| 1777047620 | 24.44° C | 59% | 1004.2 hPa | 0 mm | - | - | - |
| 1777047320 | 24.44° C | 59% | 1004.2 hPa | 0 mm | - | - | - |
| 1777047020 | 23.89° C | 60% | 1004.1 hPa | 0 mm | - | - | - |
| 1777046720 | 23.89° C | 59% | 1004.2 hPa | 0 mm | - | - | - |
| 1777046420 | 23.89° C | 61% | 1004.1 hPa | 0 mm | - | - | - |
| 1777046120 | 23.89° C | 60% | 1004 hPa | 0 mm | - | - | - |
| 1777045820 | 23.89° C | 60% | 1004.1 hPa | 0 mm | - | - | - |
| 1777045520 | 23.89° C | 62% | 1004 hPa | 0 mm | - | - | - |
| 1777045220 | 23.33° C | 61% | 1004 hPa | 0 mm | - | - | - |
| 1777044920 | 23.33° C | 61% | 1003.9 hPa | 0 mm | - | - | - |
| 1777044620 | 23.33° C | 61% | 1004.1 hPa | 0 mm | - | - | - |
| 1777044320 | 23.33° C | 61% | 1004.1 hPa | 0 mm | - | - | - |
* Rain latest hour (hover to see other rain measurements)
** Current wind speed in m/s (hover to see current wind gust speed)